This is the latest recevied weather packets stored in our database for station/object N7ZAP. If no packets are shown the sender has not sent any weather packets the latest 10 day(s).
| Time | Temp. | Humidity | Pressure | Rain* | Wind** | Luminosity | Snow |
|---|---|---|---|---|---|---|---|
| 1788207103 | 32.78° C | 26% | 1020.4 hPa | 0 mm | - | - | - |
| 1788206799 | 32.78° C | 27% | 1020.9 hPa | 0 mm | - | - | - |
| 1788206499 | 33.89° C | 25% | 1020.7 hPa | 0 mm | - | - | - |
| 1788206194 | 33.33° C | 26% | 1021 hPa | 0 mm | - | - | - |
| 1788205889 | 33.33° C | 27% | 1020.9 hPa | 0 mm | - | - | - |
| 1788205585 | 33.33° C | 26% | 1021 hPa | 0 mm | - | - | - |
| 1788205279 | 32.78° C | 26% | 1021.2 hPa | 0 mm | - | - | - |
| 1788204974 | 33.33° C | 26% | 1021 hPa | 0 mm | - | - | - |
| 1788204669 | 32.22° C | 28% | 1021.4 hPa | 0 mm | - | - | - |
| 1788204364 | 32.22° C | 28% | 1021.3 hPa | 0 mm | - | - | - |
| 1788204060 | 32.78° C | 27% | 1021.3 hPa | 0 mm | - | - | - |
| 1788203755 | 33.89° C | 26% | 1021.4 hPa | 0 mm | - | - | - |
| 1788203451 | 33.89° C | 26% | 1021.3 hPa | 0 mm | - | - | - |
| 1788203147 | 32.78° C | 28% | 1021.6 hPa | 0 mm | - | - | - |
| 1788202845 | 32.78° C | 27% | 1021.4 hPa | 0 mm | - | - | - |
| 1788202541 | 32.78° C | 27% | 1021.8 hPa | 0 mm | - | - | - |
| 1788202237 | 32.22° C | 28% | 1021.8 hPa | 0 mm | - | - | - |
| 1788201936 | 31.11° C | 30% | 1021.8 hPa | 0 mm | - | - | - |
| 1788201632 | 31.11° C | 31% | 1021.7 hPa | 0 mm | - | - | - |
| 1788201331 | 31.11° C | 31% | 1022.1 hPa | 0 mm | - | - | - |
| 1788201031 | 31.11° C | 31% | 1022.1 hPa | 0 mm | - | - | - |
| 1788200725 | 31.67° C | 32% | 1022.3 hPa | 0 mm | - | - | - |
| 1788200427 | 31.67° C | 31% | 1022.3 hPa | 0 mm | - | - | - |
| 1788200116 | 31.67° C | 30% | 1022.1 hPa | 0 mm | - | - | - |
| 1788199815 | 32.22° C | 31% | 1022.4 hPa | 0 mm | - | - | - |
* Rain latest hour (hover to see other rain measurements)
** Current wind speed in m/s (hover to see current wind gust speed)